Wind_Speed
11 12 14 14 13 14 15 17 18 18 18 17 14 13 14 15 18 21 24 27 30 33 36 38 39 39 40 40 39 37 35 33 30 27 25 23 19 18 18 19 21 23 25 26
11 12 12 12 14 14 13 14 17 19 19 19 18 17 17 19 22 25 28 32 35 37 39 39 38 38 38 37 36 35 34 32 30 28 25 23 22 20 19 20 21 23 25 25
11 10 10 10 11 11 10 14 16 19 21 22 23 22 22 24 27 30 32 34 34 34 34 34 35 35 35 35 35 35 36 35 34 31 28 25 24 24 23 23 23 24 25 26
6 6 5 5 5 6 9 13 15 18 19 20 20 22 22 24 26 27 27 27 27 28 29 30 31 32 34 36 38 40 40 40 39 36 33 31 29 29 29 29 29 28 28 29
2 2 3 2 2 1 3 6 7 9 10 11 13 16 18 20 22 23 24 26 27 29 31 33 35 37 39 41 43 45 46 46 44 43 41 39 37 36 35 36 35 35 35 34
3 3 3 4 4 4 4 5 8 9 9 9 11 13 16 19 21 23 25 28 30 33 35 37 39 41 43 44 46 47 47 47 47 46 45 44 43 42 42 41 41 41 41 41
1 2 2 4 6 7 8 8 9 9 9 11 12 14 16 19 21 25 28 31 33 35 37 39 40 41 42 43 43 44 44 45 46 47 47 47 47 47 47 46 46 46 47 47
1 2 4 5 8 10 11 12 13 13 12 12 13 14 18 21 24 28 31 34 36 37 38 39 40 40 40 41 43 44 45 46 47 48 49 49 50 50 51 51 51 51 52 53
3 4 6 8 10 13 15 16 17 17 17 16 16 18 22 25 29 32 34 35 36 38 39 41 42 43 45 47 49 50 50 48 46 44 43 44 46 48 51 54 56 57 57 58
5 7 10 12 14 15 16 17 18 19 20 20 21 24 27 29 31 33 34 36 38 40 41 43 45 47 50 53 53 52 50 46 43 41 40 40 40 42 43 46 51 57 61 63
8 11 13 14 15 15 16 17 17 18 20 23 26 28 28 30 32 33 36 38 41 43 45 47 50 53 55 55 52 49 48 47 47 47 47 47 46 46 46 45 45 47 52 59
11 13 14 14 13 13 14 15 17 20 23 25 28 29 30 31 33 35 38 41 44 46 49 51 54 57 56 52 48 47 48 49 51 52 54 54 55 53 51 50 49 48 48 50
12 14 15 13 12 13 14 17 19 22 25 28 29 29 30 32 34 37 39 42 45 48 50 53 57 56 51 47 46 48 50 52 55 57 58 59 60 60 58 56 53 51 51 50
14 14 14 13 11 11 13 17 20 24 27 29 28 28 29 31 34 37 40 44 46 48 51 55 55 49 44 45 48 50 53 56 59 62 64 64 64 63 62 60 56 53 51 50
16 16 16 15 13 14 16 20 23 27 29 30 29 29 30 33 36 39 43 46 47 49 54 54 48 42 42 45 48 51 55 59 62 65 67 66 66 64 63 59 55 52 50 49
17 19 19 17 15 17 19 22 26 29 31 31 31 31 33 36 40 43 46 47 48 51 53 49 42 41 43 46 49 54 58 62 65 66 66 65 63 61 59 55 52 49 48 48
17 19 19 17 16 17 21 24 27 30 31 33 34 34 36 37 41 45 46 48 50 53 51 45 41 42 44 48 52 57 61 63 64 64 62 60 58 56 53 51 49 47 45 46
17 17 17 16 17 20 23 26 28 30 32 34 35 37 39 41 42 46 48 50 52 53 49 44 42 43 47 51 56 60 62 63 63 61 61 60 57 54 52 49 46 44 43 45
17 17 17 17 19 22 25 27 30 32 33 35 38 40 42 43 43 44 46 48 51 52 48 45 44 46 49 53 57 60 62 62 62 63 63 60 56 51 47 43 42 41 41 42
17 18 20 20 22 24 25 27 30 33 35 38 41 43 45 47 46 46 47 49 53 53 49 46 46 48 51 55 58 61 61 61 62 62 60 56 49 44 38 34 32 33 35 37
18 20 21 22 22 23 24 27 30 34 37 40 42 44 46 48 49 50 50 52 55 53 49 46 47 49 52 56 59 60 59 60 61 61 58 52 45 39 32 27 25 26 30 34
20 22 22 22 21 22 24 28 31 33 36 40 42 45 46 48 49 49 49 51 54 53 49 47 47 49 53 56 58 59 58 58 59 58 54 48 42 34 27 23 20 20 22 28
20 21 21 20 20 22 25 28 31 34 37 41 43 45 47 48 49 49 49 51 53 54 50 47 47 49 52 56 58 58 57 56 57 55 50 45 40 32 25 19 15 13 14 18
19 19 19 20 21 23 26 28 31 35 38 42 44 46 48 48 49 50 50 50 52 53 50 47 46 48 51 55 57 57 56 55 54 52 48 44 38 32 24 18 14 9 8 12
18 17 18 20 22 24 27 29 32 36 39 42 44 46 47 48 49 50 50 50 52 53 52 48 46 47 50 53 55 55 54 52 50 49 47 43 39 33 27 20 15 10 5 4
18 18 20 21 24 25 28 30 33 36 39 42 44 45 47 47 48 49 50 50 52 53 52 48 45 45 48 51 53 54 52 50 48 47 46 42 38 33 29 24 18 13 7 2
Wind_Direction
277 278 280 278 274 269 266 263 265 266 268 270 273 279 279 279 279 281 284 286 288 289 292 294 297 299 300 302 305 308 313 317 319 320 318 315 307 294 281 272 268 264 260 261
268 272 271 269 268 267 265 265 266 266 270 271 273 276 280 283 284 285 285 286 287 289 291 292 292 293 295 298 301 304 307 310 311 310 308 304 299 292 280 271 270 267 262 259
270 270 263 260 260 262 267 275 278 277 276 276 278 280 282 285 288 289 290 290 290 289 289 288 289 289 291 294 297 300 303 304 304 302 297 293 291 287 281 273 269 269 265 261
267 262 255 245 241 256 271 280 286 289 292 293 292 292 291 290 289 289 291 293 293 292 291 292 293 292 292 293 296 298 300 301 300 298 294 288 284 280 277 274 270 265 261 259
80 104 113 118 125 0 308 309 315 319 316 310 305 299 293 290 290 293 296 298 299 299 299 300 299 298 298 298 298 299 300 300 299 296 293 288 283 278 274 270 266 263 261 259
84 89 71 47 46 35 10 357 350 339 326 309 301 293 287 289 293 297 299 301 302 303 303 301 300 299 298 298 298 298 298 297 296 294 291 288 283 279 274 269 264 260 258 256
93 57 11 355 350 342 332 331 335 327 307 292 289 285 285 291 296 299 302 305 306 305 304 303 301 300 299 298 297 296 295 293 292 290 288 285 282 279 274 269 264 259 255 252
359 340 331 323 322 324 328 333 333 329 320 309 300 295 294 300 302 302 304 306 307 308 309 308 306 304 302 300 298 296 293 291 289 287 285 282 279 276 273 270 265 260 255 252
346 318 318 316 318 322 326 330 329 325 320 314 310 304 301 303 302 303 305 308 311 312 312 311 310 309 307 305 302 301 299 297 295 292 289 286 282 277 272 268 265 261 257 252
338 326 324 324 320 322 323 323 322 321 319 315 311 306 306 304 305 307 311 314 316 315 315 315 314 312 311 310 309 308 308 308 307 305 302 299 295 290 283 276 268 262 257 254
344 334 326 323 321 319 317 318 318 319 318 315 313 315 315 313 314 316 317 318 319 320 320 318 317 316 315 314 313 312 312 312 311 309 307 304 301 297 292 287 280 271 263 256
347 338 331 328 325 324 322 322 321 321 322 322 322 321 320 318 319 319 320 321 322 323 322 320 319 317 316 314 313 313 313 313 312 310 307 304 301 297 293 288 282 276 270 263
346 344 340 336 332 329 326 323 324 328 330 329 326 324 322 320 320 322 323 323 323 322 321 320 319 317 316 315 315 315 314 313 311 308 305 302 299 296 293 289 283 276 270 264
340 341 342 337 333 327 325 326 332 337 337 333 330 326 323 321 322 323 323 323 324 323 323 322 320 318 317 316 315 315 314 312 310 307 305 302 299 295 292 288 283 276 269 263
335 337 336 332 332 334 335 335 339 342 341 336 332 329 328 328 328 327 326 327 327 327 326 323 320 318 317 316 316 316 314 312 310 308 306 303 300 297 292 288 281 274 267 260
329 327 326 324 328 335 335 338 343 344 341 338 336 335 335 334 331 331 331 330 330 329 328 325 321 319 319 319 318 317 316 315 313 311 308 305 302 298 293 287 279 272 263 254
316 314 314 317 324 331 337 340 342 343 341 342 341 339 338 337 336 333 333 333 333 332 330 327 324 323 323 322 321 321 320 318 316 314 311 308 305 299 293 286 279 270 261 250
305 305 307 315 325 337 338 338 339 341 343 344 343 341 342 341 340 337 336 336 335 333 332 329 328 327 326 326 325 325 324 323 321 318 315 311 306 300 292 285 277 268 260 249
302 309 313 322 331 336 335 335 336 340 344 343 344 345 344 343 343 340 337 337 336 336 336 334 332 331 330 330 330 329 329 328 326 323 320 315 310 304 296 287 276 266 257 247
305 311 317 324 330 331 331 333 335 339 342 343 344 345 345 344 343 343 342 341 341 341 340 337 334 333 333 334 334 334 334 333 331 330 327 323 318 313 305 292 278 265 253 245
311 313 315 319 324 326 328 332 335 337 341 342 343 344 345 345 345 345 345 344 344 344 341 338 336 336 336 337 338 339 339 338 338 337 335 331 326 321 313 302 285 267 253 243
312 312 314 320 324 325 329 333 334 335 337 338 340 343 345 346 346 346 346 345 346 346 343 339 338 338 338 340 342 343 343 344 344 343 342 341 337 331 324 315 299 276 257 240
310 311 317 324 324 325 329 330 331 332 334 336 339 342 345 347 347 348 347 346 346 347 344 341 340 340 341 344 346 347 348 349 349 351 351 351 349 345 339 332 318 291 262 239
311 316 320 322 323 324 326 328 330 332 333 335 338 342 346 347 348 349 348 347 346 347 346 343 341 342 344 347 349 350 352 353 355 358 359 359 360 359 355 349 343 323 278 243
315 319 320 321 322 324 326 328 331 331 332 335 339 342 345 347 348 348 348 347 346 347 347 345 343 343 346 349 351 352 354 356 358 1 4 5 7 8 8 8 4 358 340 262
313 319 321 321 323 325 327 329 330 329 331 334 337 339 343 346 347 347 347 346 346 347 348 346 344 344 347 351 353 354 357 359 1 3 7 9 12 15 17 17 18 18 15 11
Height
5866 5868 5867 5867 5867 5867 5867 5867 5866 5866 5866 5866 5866 5866 5866 5866 5866 5865 5864 5862 5860 5857 5854 5851 5848 5845 5842 5839 5836 5833 5829 5826 5823 5821 5819 5816 5814 5812 5810 5808 5807 5806 5805 5805
5865 5865 5865 5864 5864 5864 5864 5864 5863 5863 5863 5863 5863 5863 5864 5863 5862 5860 5858 5856 5853 5850 5847 5844 5841 5839 5836 5833 5830 5826 5823 5821 5818 5816 5814 5812 5810 5808 5806 5804 5803 5801 5800 5799
5862 5862 5862 5862 5862 5862 5862 5861 5861 5860 5860 5860 5861 5861 5860 5859 5857 5854 5852 5849 5845 5842 5840 5837 5834 5832 5829 5825 5822 5819 5816 5813 5811 5809 5808 5806 5805 5803 5801 5800 5798 5796 5795 5793
5859 5860 5860 5860 5860 5860 5860 5859 5859 5857 5857 5857 5857 5856 5856 5854 5851 5848 5845 5842 5838 5835 5833 5830 5827 5824 5821 5817 5814 5811 5808 5805 5803 5801 5800 5798 5797 5796 5794 5793 5792 5790 5789 5787
5858 5859 5859 5859 5860 5860 5859 5858 5857 5856 5854 5854 5853 5852 5851 5848 5845 5843 5840 5836 5833 5829 5826 5823 5820 5816 5812 5808 5805 5801 5798 5796 5793 5791 5790 5788 5787 5785 5784 5784 5783 5781 5780 5779
5860 5860 5860 5860 5859 5859 5858 5857 5856 5854 5853 5853 5852 5851 5847 5844 5841 5838 5835 5831 5827 5824 5820 5817 5813 5808 5804 5800 5796 5792 5788 5785 5781 5778 5776 5774 5773 5772 5771 5770 5770 5769 5768 5768
5861 5861 5860 5860 5859 5858 5857 5856 5855 5853 5852 5851 5850 5848 5845 5841 5837 5834 5830 5825 5821 5817 5812 5808 5804 5800 5795 5791 5787 5782 5778 5774 5769 5765 5761 5758 5756 5755 5754 5754 5754 5754 5753 5753
5861 5861 5860 5858 5857 5856 5855 5854 5853 5851 5850 5848 5847 5844 5842 5837 5833 5829 5825 5820 5815 5810 5805 5800 5795 5790 5786 5781 5776 5771 5766 5761 5756 5751 5747 5743 5740 5737 5736 5736 5736 5736 5736 5737
5860 5860 5858 5857 5855 5855 5853 5851 5850 5848 5846 5844 5843 5840 5837 5833 5829 5824 5819 5814 5809 5804 5798 5792 5786 5779 5773 5767 5760 5754 5749 5744 5740 5735 5731 5726 5723 5720 5718 5717 5716 5716 5717 5718
5860 5859 5857 5856 5854 5852 5851 5849 5847 5844 5842 5840 5838 5835 5832 5827 5822 5817 5812 5807 5801 5795 5788 5781 5774 5766 5758 5750 5742 5735 5729 5724 5720 5717 5714 5710 5706 5702 5699 5698 5696 5696 5696 5697
5859 5858 5856 5854 5852 5850 5848 5846 5844 5841 5839 5836 5832 5830 5824 5819 5814 5809 5804 5798 5791 5784 5776 5768 5760 5751 5743 5734 5726 5720 5713 5708 5703 5699 5695 5692 5688 5684 5681 5679 5677 5676 5675 5675
5858 5856 5853 5852 5850 5848 5846 5843 5841 5839 5835 5831 5826 5824 5816 5811 5806 5801 5795 5788 5781 5773 5765 5756 5747 5739 5730 5721 5714 5708 5701 5695 5689 5683 5677 5672 5668 5665 5662 5659 5657 5655 5655 5654
5858 5856 5852 5850 5850 5846 5843 5840 5837 5835 5831 5826 5821 5820 5811 5806 5801 5795 5788 5781 5774 5765 5757 5747 5737 5727 5718 5710 5703 5696 5689 5682 5675 5668 5660 5654 5647 5642 5639 5636 5634 5633 5633 5633
5857 5854 5853 5850 5847 5844 5841 5838 5835 5832 5827 5822 5817 5813 5808 5802 5796 5790 5783 5775 5766 5757 5747 5737 5726 5716 5707 5700 5692 5685 5677 5668 5659 5650 5641 5633 5626 5620 5615 5612 5610 5609 5609 5610
5855 5852 5850 5848 5845 5842 5839 5836 5832 5828 5823 5818 5813 5808 5803 5797 5790 5782 5774 5766 5757 5747 5737 5726 5715 5706 5699 5691 5683 5674 5665 5654 5643 5632 5621 5611 5602 5595 5590 5587 5585 5584 5585 5587
5851 5850 5848 5846 5843 5840 5836 5833 5828 5824 5819 5814 5808 5803 5797 5790 5781 5773 5764 5756 5747 5738 5727 5715 5706 5698 5690 5682 5673 5663 5651 5639 5627 5614 5602 5590 5580 5572 5566 5562 5560 5561 5562 5565
5850 5848 5846 5843 5840 5838 5833 5829 5825 5821 5816 5809 5803 5798 5791 5784 5774 5765 5757 5748 5737 5727 5715 5705 5696 5688 5680 5670 5660 5649 5636 5623 5610 5596 5583 5570 5559 5551 5544 5540 5538 5539 5541 5544
5848 5846 5844 5841 5838 5833 5832 5825 5822 5818 5812 5806 5799 5792 5784 5777 5769 5757 5748 5738 5728 5718 5707 5696 5687 5678 5669 5658 5647 5635 5621 5607 5593 5578 5564 5551 5540 5530 5523 5519 5517 5518 5520 5525
5846 5843 5840 5837 5833 5829 5826 5822 5817 5813 5808 5801 5794 5786 5778 5771 5764 5754 5743 5733 5722 5709 5697 5687 5677 5668 5658 5648 5635 5621 5607 5592 5576 5561 5546 5530 5518 5508 5502 5498 5496 5498 5501 5506
5842 5839 5836 5832 5829 5826 5824 5819 5813 5808 5803 5796 5788 5780 5772 5763 5755 5747 5736 5724 5712 5699 5688 5678 5669 5659 5649 5638 5625 5610 5594 5579 5563 5546 5528 5512 5499 5490 5483 5480 5479 5480 5484 5490
5838 5835 5831 5828 5826 5823 5820 5815 5810 5804 5799 5790 5782 5775 5766 5756 5746 5736 5726 5715 5704 5692 5681 5672 5662 5652 5642 5630 5616 5600 5585 5569 5552 5534 5516 5500 5487 5478 5471 5468 5467 5467 5471 5476
5833 5830 5827 5825 5822 5821 5815 5810 5806 5801 5793 5786 5778 5770 5761 5752 5741 5731 5721 5710 5698 5688 5677 5667 5657 5647 5635 5623 5609 5593 5577 5562 5544 5527 5509 5494 5481 5471 5465 5461 5459 5459 5460 5465
5829 5827 5823 5821 5820 5815 5810 5806 5801 5795 5788 5781 5773 5765 5756 5746 5736 5725 5715 5704 5694 5683 5672 5661 5651 5641 5629 5617 5602 5588 5572 5556 5540 5523 5507 5492 5479 5469 5462 5458 5455 5455 5456 5459
5826 5823 5820 5817 5814 5810 5806 5802 5796 5790 5783 5775 5767 5758 5749 5739 5729 5720 5710 5700 5690 5679 5667 5657 5647 5636 5625 5612 5598 5583 5568 5553 5538 5522 5507 5493 5481 5471 5463 5458 5455 5454 5454 5456
5822 5819 5816 5813 5810 5806 5802 5796 5791 5784 5777 5769 5761 5752 5743 5734 5725 5715 5706 5696 5686 5675 5663 5652 5642 5632 5621 5609 5595 5581 5567 5553 5538 5524 5509 5496 5485 5475 5467 5461 5458 5456 5455 5456
5818 5815 5812 5808 5805 5801 5796 5791 5785 5779 5772 5764 5756 5748 5739 5730 5720 5711 5701 5691 5681 5671 5660 5648 5638 5628 5618 5606 5594 5580 5566 5553 5540 5527 5514 5501 5490 5481 5473 5467 5463 5460 5458 5458